CAPE
10 0 0 0 0 0 0 0 0 0 0 0 0 0 0 0 0 0 0 0 0 0 0 0 0 0 0 0 0 0 0 0 0 0 0 0 0 0 0 0 0 0 0 0 0 0 0
0 8 0 0 0 0 0 0 0 0 0 0 0 0 0 0 0 0 0 0 0 0 0 0 0 0 0 0 0 0 0 0 0 0 0 0 0 0 0 0 0 0 0 0 0 0 0
1 0 1 0 0 0 0 0 0 0 0 0 0 0 0 0 0 0 0 0 0 0 0 0 0 0 0 0 0 0 0 0 0 0 0 0 0 0 0 0 0 0 0 0 0 0 0
0 0 6 0 0 0 0 0 0 0 0 0 0 0 0 0 0 0 0 0 0 0 0 0 0 0 0 0 0 0 0 0 0 0 0 0 0 0 0 0 0 0 0 0 0 0 0
1 5 1 3 0 0 0 0 0 0 0 0 0 0 0 0 0 0 0 0 0 0 0 0 0 0 0 0 0 0 0 0 0 0 0 0 0 0 0 0 0 0 0 0 0 0 0
0 0 0 0 1 2 0 0 0 0 0 0 0 0 0 0 0 0 0 0 0 0 0 0 0 0 0 0 0 0 0 0 0 0 0 0 0 0 0 0 0 0 0 0 0 0 0
2 0 0 1 0 0 0 0 0 0 0 0 0 0 0 0 0 0 0 0 0 0 0 0 0 0 0 0 0 0 0 0 0 0 0 0 0 0 0 0 0 0 0 0 0 0 0
0 1 1 2 0 0 0 0 0 0 0 0 0 0 0 0 0 0 0 0 0 0 0 0 0 0 0 0 0 0 0 0 0 0 0 0 0 0 0 0 0 0 0 0 0 0 0
1 2 1 1 0 0 0 0 0 0 0 0 0 0 0 0 0 0 0 0 0 0 0 0 0 0 0 0 0 0 0 0 0 0 0 0 0 0 0 0 0 0 0 0 0 0 0
2 1 0 0 2 0 0 0 0 0 0 0 0 0 0 0 0 0 0 0 0 0 0 0 0 0 0 0 0 0 0 0 0 0 0 0 0 0 0 0 0 0 0 0 0 0 0
3 2 1 0 2 0 0 0 0 0 0 0 0 0 0 0 0 0 0 0 0 0 0 0 0 0 0 0 0 0 0 0 0 0 0 0 0 0 0 0 0 0 0 0 0 0 0
1 2 0 2 1 1 0 0 0 0 0 0 0 0 0 0 0 0 0 0 0 0 0 0 0 0 0 0 0 0 0 0 0 0 0 0 0 0 0 0 0 0 0 0 0 0 0
0 0 0 0 0 0 0 0 0 0 0 0 0 0 0 0 0 0 0 0 0 0 0 0 0 0 0 0 0 0 0 0 0 0 0 0 0 0 0 0 0 0 0 0 0 0 0
0 0 0 0 0 0 0 0 0 0 0 0 0 0 0 0 0 0 0 0 0 0 0 0 0 0 0 0 0 0 0 0 0 0 0 0 0 0 0 0 0 0 0 0 0 0 0
0 0 0 0 0 0 0 0 0 0 0 0 0 0 0 0 0 0 0 0 0 0 0 0 0 0 0 0 0 0 0 0 0 0 0 0 0 0 0 0 0 0 0 0 1 0 0
0 0 0 0 0 0 0 0 0 0 0 0 0 0 0 0 0 0 0 0 0 0 0 0 0 0 0 0 0 0 0 0 0 0 0 0 0 0 0 0 0 0 0 0 0 0 0
1 0 0 0 0 0 0 0 0 0 0 0 0 0 0 0 0 0 0 0 0 0 0 0 0 0 0 0 0 0 0 0 0 0 0 0 0 0 0 0 0 0 0 0 0 0 0
1 1 0 0 0 0 0 0 0 0 0 0 0 0 0 0 0 0 0 0 0 0 0 0 0 0 0 0 0 0 0 0 0 0 0 0 0 0 0 0 0 0 0 0 0 0 0
0 1 1 0 0 0 0 0 0 0 0 0 0 0 0 0 0 0 0 0 0 0 0 0 0 0 0 0 0 0 0 0 0 0 0 0 0 0 0 0 0 0 1 0 0 0 0
1 1 0 0 0 0 1 1 1 0 0 0 0 0 0 0 0 0 0 0 0 0 0 0 0 0 0 0 0 0 0 0 0 0 0 0 0 0 0 0 0 0 0 0 1 0 0
0 2 7 0 0 0 1 2 2 0 0 0 0 0 0 0 0 0 0 0 0 0 0 0 0 0 0 0 0 0 0 0 0 0 0 0 0 0 0 0 0 0 0 0 0 0 0
1 0 0 5 5 0 2 2 2 1 0 0 0 0 0 0 0 0 0 0 0 0 0 0 0 0 0 0 0 0 0 0 0 0 0 0 0 0 0 0 0 0 0 0 0 0 1
0 1 0 1 5 0 2 2 2 3 0 0 0 0 0 0 0 0 0 0 0 0 0 0 0 0 0 0 0 0 0 0 0 0 0 0 0 0 0 0 0 0 0 0 0 0 0
0 0 0 0 0 1 1 2 3 1 0 0 0 0 0 0 0 0 0 0 0 0 0 0 0 0 0 0 0 0 0 0 0 0 0 0 0 0 0 0 0 0 0 0 0 0 0
13 11 0 0 0 2 0 1 2 2 0 0 0 0 0 0 0 0 0 0 0 0 0 0 0 0 0 0 0 0 0 0 0 0 0 0 0 0 0 0 0 0 0 0 0 0 0
19 8 12 0 0 0 17 5 2 2 1 0 0 0 0 0 0 0 0 0 0 0 0 0 0 0 0 0 0 0 0 0 0 0 0 0 0 0 0 0 0 0 0 0 0 0 0
34 25 17 10 4 0 0 1 3 2 2 0 0 0 0 0 0 0 0 0 0 0 0 2 0 0 0 0 0 0 0 0 0 0 0 0 0 0 0 0 0 0 0 0 0 0 0
22 15 7 7 8 0 0 0 1 2 3 1 0 0 0 0 0 0 0 0 0 0 0 3 0 0 0 0 0 0 0 0 0 0 0 0 0 0 0 0 0 0 0 0 0 0 0
16 14 1 8 4 1 0 0 0 0 3 3 0 1 0 0 0 0 0 0 0 0 0 0 0 0 0 0 0 0 0 0 0 0 0 0 0 0 0 0 0 0 0 0 0 0 0
CIN
-1 -0 -0 -0 -0 -0 -0 -0 -0 -0 -0 -0 -0 -0 -0 -0 -0 -0 -0 -0 -0 -0 -0 -0 -0 -0 -0 -0 -0 -0 -0 -0 -0 -0 -0 -0 -0 -0 -0 -0 -0 -0 -0 -0 -0 -0 -0
-0 -0 -0 -0 -0 -0 -0 -0 -0 -0 -0 -0 -0 -0 -0 -0 -0 -0 -0 -0 -0 -0 -0 -0 -0 -0 -0 -0 -0 -0 -0 -0 -0 -0 -0 -0 -0 -0 -0 -0 -0 -0 -0 -0 -0 -0 -0
-0 -0 -0 -0 -0 -0 -0 -0 -0 -0 -0 -0 -0 -0 -0 -0 -0 -0 -0 -0 -0 -0 -0 -0 -0 -0 -0 -0 -0 -0 -0 -0 -0 -0 -0 -0 -0 -0 -0 -0 -0 -0 -0 -0 -0 -0 -0
-0 -0 -0 -0 -0 -0 -0 -0 -0 -0 -0 -0 -0 -0 -0 -0 -0 -0 -0 -0 -0 -0 -0 -0 -0 -0 -0 -0 -0 -0 -0 -0 -0 -0 -0 -0 -0 -0 -0 -0 -0 -0 -0 -0 -0 -0 -0
-0 -0 -0 -0 -0 -0 -0 -0 -0 -0 -0 -0 -0 -0 -0 -0 -0 -0 -0 -0 -0 -0 -0 -0 -0 -0 -0 -0 -0 -0 -0 -0 -0 -0 -0 -0 -0 -0 -0 -0 -0 -0 -0 -0 -0 -0 -0
-0 -0 -0 -0 -0 -1 -0 -0 -0 -0 -0 -0 -0 -0 -0 -0 -0 -0 -0 -0 -0 -0 -0 -0 -0 -0 -0 -0 -0 -0 -0 -0 -0 -0 -0 -0 -0 -0 -0 -0 -0 -0 -0 -0 -0 -0 -0
-3 -0 -0 -6 -0 -0 -0 -0 -0 -0 -0 -0 -0 -0 -0 -0 -0 -0 -0 -0 -0 -0 -0 -0 -0 -0 -0 -0 -0 -0 -0 -0 -0 -0 -0 -0 -0 -0 -0 -0 -0 -0 -0 -0 -0 -0 -0
-0 -5 -2 -6 -0 -0 -0 -0 -0 -0 -0 -0 -0 -0 -0 -0 -0 -0 -0 -0 -0 -0 -0 -0 -0 -0 -0 -0 -0 -0 -0 -0 -0 -0 -0 -0 -0 -0 -0 -0 -0 -0 -0 -0 -0 -0 -0
-10 -5 -2 -4 -0 -0 -0 -0 -0 -0 -0 -0 -0 -0 -0 -0 -0 -0 -0 -0 -0 -0 -0 -0 -0 -0 -0 -0 -0 -0 -0 -0 -0 -0 -0 -0 -0 -0 -0 -0 -0 -0 -0 -0 -0 -0 -0
-13 -5 -0 -0 -6 -0 -0 -0 -0 -0 -0 -0 -0 -0 -0 -0 -0 -0 -0 -0 -0 -0 -0 -0 -0 -0 -0 -0 -0 -0 -0 -0 -0 -0 -0 -0 -0 -0 -0 -0 -0 -0 -0 -0 -0 -0 -0
-13 -8 -8 -0 -8 -5 -0 -0 -0 -0 -0 -0 -0 -0 -0 -0 -0 -0 -0 -0 -0 -0 -0 -0 -0 -0 -0 -0 -0 -0 -0 -0 -0 -0 -0 -0 -0 -0 -0 -0 -0 -0 -0 -0 -0 -0 -0
-12 -11 -5 -10 -12 -4 -0 -0 -0 -0 -0 -0 -0 -0 -0 -0 -0 -0 -0 -0 -0 -0 -0 -0 -0 -0 -0 -0 -0 -0 -0 -0 -0 -0 -0 -0 -0 -0 -0 -0 -0 -0 -0 -0 -0 -0 -0
-6 -8 -0 -0 -0 -0 -0 -0 -0 -0 -0 -0 -0 -0 -0 -0 -0 -0 -0 -0 -0 -0 -0 -0 -0 -0 -0 -0 -0 -0 -0 -0 -0 -0 -0 -0 -0 -0 -0 -0 -0 -0 -0 -0 -0 -0 -0
-0 -0 -0 -0 -0 -0 -0 -0 -0 -0 -0 -0 -0 -0 -0 -0 -0 -0 -0 -0 -0 -0 -0 -0 -0 -0 -0 -0 -0 -0 -0 -0 -0 -0 -0 -0 -0 -0 -0 -0 -0 -0 -0 -0 -0 -0 -0
-0 -0 -0 -0 -0 -0 -0 -0 -0 -0 -0 -0 -0 -0 -0 -0 -0 -0 -0 -0 -0 -0 -0 -0 -0 -0 -0 -0 -0 -0 -0 -0 -0 -0 -0 -0 -0 -0 -0 -0 -0 -0 -0 -0 -0 -0 -0
-0 -0 -0 -0 -0 -0 -0 -0 -0 -0 -0 -0 -0 -0 -0 -0 -0 -0 -0 -0 -0 -0 -0 -0 -0 -0 -0 -0 -0 -0 -0 -0 -0 -0 -0 -0 -0 -0 -0 -0 -0 -0 -0 -0 -0 -0 -0
-0 -0 -0 -0 -0 -0 -0 -0 -0 -0 -0 -0 -0 -0 -0 -0 -0 -0 -0 -0 -0 -0 -0 -0 -0 -0 -0 -0 -0 -0 -0 -0 -0 -0 -0 -0 -0 -0 -0 -0 -0 -0 -0 -0 -0 -0 -0
-0 -0 -0 -0 -0 -0 -0 -0 -0 -0 -0 -0 -0 -0 -0 -0 -0 -0 -0 -0 -0 -0 -0 -0 -0 -0 -0 -0 -0 -0 -0 -0 -0 -0 -0 -0 -0 -0 -0 -0 -0 -0 -0 -0 -0 -0 -0
-6 -0 -0 -0 -0 -0 -0 -0 -0 -0 -0 -0 -0 -0 -0 -0 -0 -0 -0 -0 -0 -0 -0 -0 -0 -0 -0 -0 -0 -0 -0 -0 -0 -0 -0 -0 -0 -0 -0 -0 -0 -0 -0 -0 -0 -0 -0
-0 -0 -0 -0 -0 -0 -0 -0 -0 -0 -0 -0 -0 -0 -0 -0 -0 -0 -0 -0 -0 -0 -0 -0 -0 -0 -0 -0 -0 -0 -0 -0 -0 -0 -0 -0 -0 -0 -0 -0 -0 -0 -0 -0 -0 -0 -0
-0 -0 -4 -9 -0 -0 -0 -0 -0 -0 -0 -0 -0 -0 -0 -0 -0 -0 -0 -0 -0 -0 -0 -0 -0 -0 -0 -0 -0 -0 -0 -0 -0 -0 -0 -0 -0 -0 -0 -0 -0 -0 -0 -0 -0 -0 -0
-0 -0 -0 -7 -37 -20 -0 -0 -0 -0 -0 -0 -0 -0 -0 -0 -0 -0 -0 -0 -0 -0 -0 -0 -0 -0 -0 -0 -0 -0 -0 -0 -0 -0 -0 -0 -0 -0 -0 -0 -0 -0 -0 -0 -0 -0 -0
-0 -0 -0 -0 -5 -0 -0 -0 -0 -0 -0 -0 -0 -0 -0 -0 -0 -0 -0 -0 -0 -0 -0 -0 -0 -0 -0 -0 -0 -0 -0 -0 -0 -0 -0 -0 -0 -0 -0 -0 -0 -0 -0 -0 -0 -0 -0
-0 -0 -0 -0 -0 -0 -2 -0 -0 -0 -0 -0 -0 -0 -0 -0 -0 -0 -0 -0 -0 -0 -0 -0 -0 -0 -0 -0 -0 -0 -0 -0 -0 -0 -0 -0 -0 -0 -0 -0 -0 -0 -0 -0 -0 -0 -0
-1 -0 -0 -0 -0 -0 -2 -0 -0 -0 -0 -0 -0 -0 -0 -0 -0 -0 -0 -0 -0 -0 -0 -0 -0 -0 -0 -0 -0 -0 -0 -0 -0 -0 -0 -0 -0 -0 -0 -0 -0 -0 -0 -0 -0 -0 -0
-0 -2 -4 -0 -0 -0 -2 -1 -0 -0 -0 -0 -0 -0 -0 -0 -0 -0 -0 -0 -0 -0 -0 -0 -0 -0 -0 -0 -0 -0 -0 -0 -0 -0 -0 -0 -0 -0 -0 -0 -0 -0 -0 -0 -0 -0 -0
-1 -0 -0 -7 -7 -0 -0 -4 -0 -0 -0 -0 -0 -0 -0 -0 -0 -0 -0 -0 -0 -0 -0 -0 -0 -0 -0 -0 -0 -0 -0 -0 -0 -0 -0 -0 -0 -0 -0 -0 -0 -0 -0 -0 -0 -0 -0
-1 -7 -4 -3 -2 -3 -0 -0 -0 -0 -0 -0 -0 -0 -0 -0 -0 -0 -0 -0 -0 -0 -0 -0 -0 -0 -0 -0 -0 -0 -0 -0 -0 -0 -0 -0 -0 -0 -0 -0 -0 -0 -0 -0 -0 -0 -0
-0 -2 -1 -0 -4 -5 -0 -0 -0 -0 -0 -0 -0 -0 -0 -0 -0 -0 -0 -0 -0 -0 -0 -0 -0 -0 -0 -0 -0 -0 -0 -0 -0 -0 -0 -0 -0 -0 -0 -0 -0 -0 -0 -0 -0 -0 -0
Wind_Speed
4 8 10 13 15 16 17 17 18 18 18 19 19 19 20 21 21 22 21 20 20 22 22 23 28 23 20 26 26 26 32 29 26 26 31 24 29 23 23 21 19 18 17 18 21 14 17
6 5 9 11 13 14 16 17 17 18 19 19 19 19 20 21 22 22 22 22 21 21 22 24 25 24 24 27 22 25 28 27 29 28 30 29 25 24 25 21 20 16 16 22 23 17 16
7 3 6 8 10 12 14 16 17 18 18 19 19 20 20 21 22 23 23 23 22 21 22 24 23 20 32 28 23 26 26 25 26 26 28 27 24 24 21 21 19 17 16 19 28 23 15
8 2 3 6 8 10 12 14 16 18 19 19 20 20 20 21 22 22 23 22 22 21 22 23 22 22 25 23 24 29 29 24 25 26 25 25 24 25 23 20 20 19 18 15 25 26 17
7 3 2 4 6 8 10 13 15 18 18 19 20 21 21 22 23 22 21 21 24 18 22 22 22 21 24 22 31 28 26 24 22 25 27 24 24 28 23 23 23 24 21 19 16 28 14
7 5 0 3 5 6 8 11 13 17 19 19 20 22 22 23 23 23 20 18 21 21 21 20 24 21 26 26 26 25 24 25 25 23 25 27 26 30 33 28 28 24 21 19 19 23 21
9 5 3 2 3 6 7 10 12 15 18 20 21 22 23 24 24 23 20 18 18 20 27 24 23 22 23 24 23 31 24 23 24 27 26 30 32 33 29 25 21 20 19 19 17 19 19
10 8 7 6 6 6 7 8 10 13 17 19 21 22 23 23 22 22 20 19 19 17 21 23 22 23 22 22 23 35 28 23 28 28 24 27 33 26 21 23 22 22 19 19 14 18 15
11 9 10 9 8 8 7 7 9 11 16 19 20 21 23 23 19 22 21 19 19 17 20 21 22 23 24 23 26 29 28 23 26 28 32 30 26 23 22 25 21 20 22 18 13 13 13
12 11 11 9 9 8 8 8 8 10 14 17 20 21 22 19 17 19 20 19 18 17 17 22 21 22 23 20 23 26 26 22 24 25 25 26 24 25 25 24 22 19 20 17 14 13 14
16 14 13 13 12 9 9 8 7 9 12 16 19 20 20 19 16 19 19 19 17 17 22 20 19 19 22 23 19 27 25 23 24 25 23 25 25 25 26 23 20 18 16 17 17 15 14
20 18 15 16 14 12 11 9 8 8 10 14 18 19 18 19 18 18 19 18 17 19 19 18 18 21 20 23 21 19 24 23 21 22 25 24 21 22 23 20 19 18 15 16 18 17 16
24 22 19 19 16 14 13 11 8 8 9 13 15 18 17 17 17 20 19 17 20 19 18 19 21 22 22 24 23 23 23 27 25 24 27 23 23 21 23 23 20 25 20 18 18 18 17
27 25 23 21 18 16 14 12 9 7 9 11 14 16 17 16 18 19 18 19 19 18 18 18 21 21 22 23 23 23 21 23 26 25 24 27 26 25 24 25 22 24 22 20 18 18 14
31 30 26 23 21 19 16 13 10 9 8 9 12 16 15 18 19 17 18 18 18 17 17 18 21 21 21 21 21 20 21 20 22 25 26 25 23 21 22 23 23 24 25 16 15 16 14
32 32 27 25 24 21 18 14 12 9 7 7 14 15 16 19 18 16 17 18 17 16 17 18 22 20 23 22 21 21 20 17 19 21 21 22 23 22 21 21 23 23 20 20 17 17 18
32 32 31 28 25 23 20 17 14 11 8 7 14 17 16 18 16 15 17 17 16 14 15 17 18 20 21 21 20 20 17 16 18 20 20 22 21 23 21 25 23 23 23 20 16 19 19
32 33 32 30 25 23 21 18 15 12 8 10 14 20 16 15 17 16 16 15 13 13 13 16 16 17 18 17 19 18 16 16 15 17 20 20 20 23 22 19 19 19 19 18 18 14 19
34 32 33 31 24 23 21 19 17 15 12 11 17 18 16 14 17 15 15 15 13 13 13 14 16 17 17 16 18 14 14 15 14 16 17 18 20 23 22 21 18 17 17 16 15 14 12
32 31 30 27 24 24 22 22 21 19 14 12 15 18 18 16 16 15 14 15 15 13 13 12 15 16 16 16 14 13 13 15 13 15 16 17 17 18 19 19 18 15 14 12 12 14 12
35 32 33 27 26 23 23 21 22 21 17 14 19 20 16 17 18 17 15 12 12 14 12 10 15 11 12 15 13 11 13 14 14 13 15 15 16 16 11 11 12 9 8 8 6 6 9
37 35 34 34 31 30 26 23 22 23 19 18 19 18 16 17 15 13 15 14 13 14 11 14 13 14 8 11 11 10 12 13 15 11 13 14 16 18 16 17 16 11 8 7 4 2 1
41 39 36 34 36 30 29 27 26 24 22 19 18 17 19 20 17 17 19 17 15 12 14 17 14 15 9 7 14 17 14 15 13 13 10 12 14 18 16 17 15 15 14 11 12 10 7
43 42 39 37 32 32 31 30 29 30 27 22 22 17 20 24 20 21 18 17 14 12 14 14 14 14 16 11 11 15 17 18 16 16 13 12 14 15 14 17 19 18 16 15 8 8 7
45 41 42 42 38 34 34 33 32 33 31 27 23 22 23 28 23 21 17 15 13 15 16 17 17 18 6 13 18 20 20 21 20 17 12 12 12 15 14 16 12 16 15 15 16 13 9
45 44 42 42 43 40 34 32 34 34 32 29 26 22 23 27 30 19 19 18 17 17 20 21 16 13 15 16 17 19 19 18 19 16 14 12 12 12 13 16 16 16 16 15 16 15 14
40 41 42 43 42 41 39 34 30 31 33 33 32 27 26 31 26 21 25 23 18 19 20 20 14 16 18 17 18 20 23 18 20 15 11 11 12 7 7 10 8 7 14 16 17 16 15
37 37 38 38 41 42 41 39 35 38 33 32 31 30 30 33 33 30 26 24 22 22 24 16 15 18 16 18 19 22 24 17 18 16 15 9 9 11 11 9 13 9 13 13 14 14 13
36 38 36 38 38 38 41 41 38 37 43 37 32 28 26 32 30 27 27 24 20 16 16 13 21 14 10 16 19 22 25 21 21 25 16 18 10 15 3 7 12 5 11 5 12 10 11
Wind_Direction
350 61 51 55 51 47 38 14 3 357 349 346 340 326 327 329 330 328 329 329 332 353 0 352 7 44 59 38 34 20 9 20 31 35 31 39 34 36 30 31 35 30 21 6 347 351 317
306 51 63 56 50 46 37 21 5 357 351 342 336 324 321 329 328 327 329 335 334 345 358 355 9 54 49 28 33 24 20 30 29 35 34 38 40 41 36 38 36 38 33 12 359 1 327
288 6 48 51 49 36 35 34 0 346 355 344 334 322 321 327 326 328 340 353 1 358 357 9 25 52 23 31 36 27 28 35 37 40 39 42 46 42 43 38 44 45 44 24 354 1 357
278 321 19 40 39 42 36 30 4 342 347 342 337 327 318 324 321 322 350 14 9 20 20 17 34 50 33 46 37 20 21 37 40 42 41 46 49 47 47 54 50 49 48 46 6 357 5
269 291 351 26 17 30 22 25 10 336 342 340 338 329 323 325 324 321 354 17 3 24 16 29 34 36 28 41 23 26 32 38 42 41 42 48 48 47 49 45 44 45 42 43 43 357 40
256 270 323 340 359 13 16 15 12 339 332 334 334 331 330 327 327 333 357 20 8 33 15 34 31 31 24 20 29 31 34 36 36 40 39 36 41 40 36 38 32 37 43 47 42 13 11
246 249 249 303 357 341 357 359 7 348 331 324 330 332 331 329 336 341 6 18 22 18 14 24 24 28 25 26 39 23 32 39 36 35 35 37 33 31 36 43 48 47 48 46 50 33 19
243 244 264 276 303 325 333 345 359 355 333 327 321 324 327 331 347 358 10 7 18 29 11 22 28 27 26 34 37 10 24 40 35 36 35 35 30 37 47 45 47 47 45 41 55 37 46
240 241 260 268 286 302 309 327 349 354 336 327 321 317 322 324 359 357 11 14 12 27 14 17 21 23 25 27 33 26 26 38 35 35 30 33 35 41 45 40 43 45 38 36 46 48 48
232 245 252 256 271 287 291 308 332 347 341 329 323 315 322 339 348 352 353 4 13 23 20 12 23 24 24 31 31 27 26 37 35 35 34 34 38 38 40 39 40 37 36 39 49 57 43
240 243 250 255 262 272 280 290 314 335 337 331 324 322 329 345 352 343 348 359 8 8 348 14 24 27 30 31 33 25 28 34 36 34 35 33 35 36 35 37 42 40 39 43 50 60 62
243 244 246 251 254 262 270 277 296 319 329 331 324 323 332 332 340 344 343 357 0 357 355 14 23 19 23 26 31 36 35 31 39 34 35 37 45 42 38 43 45 35 48 47 51 64 63
243 246 246 248 246 251 260 266 281 299 317 323 329 330 332 335 338 332 338 358 345 347 4 2 6 12 14 13 19 27 32 30 27 25 24 32 37 42 40 39 45 36 40 37 42 48 55
244 243 243 241 242 244 250 257 265 280 303 313 321 325 328 332 330 336 348 341 337 346 353 4 2 7 9 12 17 22 28 25 27 27 27 24 28 35 39 40 37 37 42 41 36 41 59
241 241 239 235 237 241 244 250 256 266 287 305 317 320 326 318 325 337 339 336 334 343 355 356 357 358 5 10 14 23 28 29 27 26 24 24 31 41 43 44 43 39 41 60 57 56 75
237 238 232 234 233 236 237 242 247 249 265 288 303 310 315 311 322 332 329 328 335 344 353 353 346 354 355 1 8 16 24 34 29 32 37 33 30 41 42 47 47 47 54 52 59 50 49
234 234 235 231 233 234 234 236 235 233 240 270 296 299 314 312 322 325 320 326 332 346 354 352 351 350 354 359 8 10 24 34 27 30 34 33 37 35 43 39 42 46 50 59 70 5 31
233 231 232 232 231 231 231 226 221 215 214 263 289 287 309 315 306 316 316 328 340 341 352 349 357 359 358 5 4 10 22 29 34 35 26 33 38 31 38 49 54 53 54 58 59 63 351
242 238 231 229 226 226 220 215 207 200 206 262 279 287 305 307 297 302 316 322 332 335 337 345 346 353 0 3 2 19 30 21 36 31 29 37 35 29 36 45 53 50 55 59 66 71 56
250 243 233 230 228 220 215 213 206 200 212 263 276 282 290 294 298 298 305 313 317 332 335 344 344 351 355 356 12 13 17 8 30 23 27 34 35 35 33 34 39 41 46 60 66 59 61
248 251 241 237 229 226 221 210 200 199 205 253 270 278 283 287 282 284 297 311 314 323 330 340 340 345 351 353 5 15 8 2 14 27 21 28 27 33 36 31 33 35 39 53 65 73 61
248 248 248 239 237 234 224 212 205 198 204 251 260 273 277 285 291 279 284 294 297 311 322 328 327 337 344 350 355 6 1 359 1 21 16 22 22 22 28 38 40 37 43 52 70 128 205
247 247 248 249 236 233 226 217 207 198 206 251 264 273 275 278 278 278 280 284 294 302 315 312 325 330 336 336 331 334 345 350 3 6 22 18 23 18 31 32 27 42 54 71 66 69 94
247 247 246 245 247 234 232 223 213 206 211 254 254 258 269 272 269 275 285 284 282 295 303 309 318 329 327 353 353 337 337 338 344 346 353 7 12 20 25 27 32 42 54 58 72 65 129
246 248 247 246 247 249 234 229 219 219 223 247 247 251 262 268 267 273 274 279 283 287 297 300 311 312 346 318 315 315 318 320 325 334 351 358 13 10 23 23 25 37 53 59 60 61 112
246 246 246 246 244 247 247 238 224 223 222 239 245 253 264 263 261 266 263 267 277 280 286 296 312 311 308 309 309 309 307 315 317 336 346 354 358 6 14 14 21 33 47 62 60 64 83
245 245 245 245 245 244 246 245 224 226 225 236 251 245 259 264 268 255 263 261 270 275 287 293 302 298 300 297 295 296 295 306 304 316 333 350 354 359 12 12 22 49 49 59 49 57 76
245 246 246 246 245 244 243 244 246 237 230 232 253 242 248 261 262 259 260 262 267 271 277 286 302 301 296 289 289 289 287 295 298 305 315 334 351 352 357 8 7 69 43 38 42 62 75
248 247 248 248 246 247 246 245 249 248 242 236 256 248 251 259 266 262 265 272 271 262 271 265 292 298 289 299 289 285 281 287 288 292 299 307 317 329 2 3 356 133 15 79 36 54 72